FW0097 Weather Reports


time (UTC)temp
C
wind
direction
speed
KPH
gust
KPH
rain 1hr
cm
rain 24hr
cm
rain mn
cm
humidity
%
barometer
mb
20240527194512 17 67 0.0 0.0 0.00 0.03 0.00 68 1016.6
20240527193015 17 82 0.0 1.6 0.00 0.03 0.00 69 1016.5
20240527191508 17 74 0.0 0.0 0.00 0.03 0.00 69 1016.5
20240527190002 18 78 0.0 0.0 0.00 0.03 0.00 69 1016.4
20240527184501 18 74 0.0 0.0 0.00 0.03 0.00 67 1016.3
20240527183111 19 86 0.0 1.6 0.00 0.03 0.00 62 1016.3
20240527181600 20 63 0.0 1.6 0.00 0.03 0.00 61 1016.3
20240527180105 21 104 0.0 0.0 0.00 0.03 0.00 58 1016.4
20240527174602 22 113 0.0 0.0 0.00 0.03 0.00 53 1016.5
20240527173105 23 126 0.0 0.0 0.00 0.03 0.00 49 1016.5
20240527171615 24 151 0.0 0.0 0.00 0.33 0.00 43 1016.4
20240527170025 25 184 0.0 0.0 0.00 0.33 0.00 43 1016.5
20240527163022 25 149 0.0 1.6 0.00 0.33 0.00 41 1016.5
20240527161521 25 166 0.0 4.8 0.00 0.61 0.00 39 1016.6
20240527160025 25 165 0.0 3.2 0.00 0.61 0.00 39 1016.5
20240527154520 25 159 0.0 1.6 0.00 0.61 0.00 41 1016.5
20240527153021 25 168 0.0 14.5 0.00 0.61 0.00 39 1016.6
20240527151516 25 137 0.0 1.6 0.00 0.71 0.00 39 1016.8
20240527150014 25 217 0.0 11.3 0.00 0.71 0.00 40 1016.8
20240527144511 25 173 0.0 16.1 0.00 0.71 0.00 40 1016.9
20240527143008 25 157 0.0 16.1 0.00 0.71 0.00 40 1017.0
20240527141508 25 159 3.2 19.3 0.00 1.02 0.00 41 1017.0
20240527140006 25 190 0.0 16.1 0.00 1.02 0.00 43 1017.1
20240527134505 25 153 0.0 14.5 0.00 1.02 0.00 43 1017.2
20240527133002 25 154 3.2 14.5 0.00 1.02 0.00 44 1017.4
20240527131604 25 161 0.0 8.0 0.00 1.02 0.00 44 1017.4
20240527130058 25 177 0.0 14.5 0.00 1.02 0.00 45 1017.7
20240527124557 25 117 0.0 19.3 0.00 1.02 0.00 46 1017.7
20240527123053 25 153 0.0 6.4 0.00 1.02 0.00 45 1017.9
20240527121551 25 180 3.2 17.7 0.00 1.02 0.00 46 1018.1
20240527120051 25 153 3.2 16.1 0.00 1.02 0.00 43 1018.1
20240527114549 25 128 1.6 14.5 0.00 1.02 0.00 43 1018.3
20240527113048 25 173 0.0 12.9 0.00 1.02 0.00 43 1018.5
20240527111546 25 142 0.0 8.0 0.00 1.02 0.00 45 1018.6
20240527110042 25 178 0.0 16.1 0.00 1.02 0.00 44 1018.7
20240527104539 25 157 0.0 4.8 0.00 1.02 0.00 49 1018.9
20240527103039 25 110 0.0 9.7 0.00 1.02 0.00 51 1019.0
20240527101534 24 147 0.0 11.3 0.00 1.02 0.00 51 1019.1
20240527100032 23 174 1.6 14.5 0.00 1.02 0.00 51 1019.1
20240527094527 24 178 0.0 11.3 0.00 1.02 0.00 55 1019.2
20240527093124 23 244 0.0 4.8 0.00 1.02 0.00 58 1019.3
20240527091520 23 198 0.0 0.0 0.00 1.02 0.00 58 1019.4
20240527090020 23 178 0.0 0.0 0.00 1.02 0.00 58 1019.5
20240527084511 22 61 0.0 0.0 0.00 1.02 0.00 63 1019.5
20240527083008 21 65 0.0 0.0 0.00 1.02 0.00 69 1019.6
20240527081503 20 36 0.0 0.0 0.00 1.02 0.00 71 1019.7
20240527080059 20 360 0.0 0.0 0.00 1.02 0.00 74 1019.8
20240527074526 18 64 0.0 0.0 0.00 1.02 0.00 76 1019.9
20240527073023 18 360 0.0 0.0 0.00 1.02 0.00 76 1020.1
20240527071533 17 42 0.0 0.0 0.00 1.02 1.02 78 1020.1
20240527070019 17 60 0.0 0.0 0.00 1.02 1.02 79 1020.1
20240527064519 16 56 0.0 0.0 0.00 1.02 1.02 82 1020.2
20240527063019 16 46 0.0 0.0 0.00 1.02 1.02 82 1020.3
20240527061515 16 34 0.0 0.0 0.00 1.02 1.02 86 1020.3
20240527060016 15 24 0.0 0.0 0.00 1.02 1.02 86 1020.3
20240527054515 14 34 0.0 1.6 0.00 1.02 1.02 87 1020.3
20240527053015 13 9 0.0 0.0 0.00 1.02 1.02 89 1020.1
20240527051517 13 53 0.0 0.0 0.00 1.02 1.02 90 1020.2
20240527050012 13 344 0.0 0.0 0.00 1.02 1.02 91 1020.2
20240527044511 13 11 0.0 0.0 0.00 1.02 1.02 92 1020.2
20240527043011 12 55 0.0 0.0 0.00 1.02 1.02 94 1020.1
20240527041508 12 60 0.0 0.0 0.00 1.02 1.02 95 1020.1
20240527040007 11 79 0.0 0.0 0.00 1.02 1.02 95 1020.0
20240527034507 11 78 0.0 0.0 0.00 1.02 1.02 95 1020.1
20240527033018 11 79 0.0 0.0 0.03 1.02 1.02 95 1020.0
20240527030005 10 79 0.0 0.0 0.03 1.02 1.02 95 1020.1
20240527024503 11 79 0.0 0.0 0.03 1.02 1.02 95 1020.0
20240527023004 11 79 0.0 0.0 0.00 0.99 0.99 95 1019.9
20240527021613 11 79 0.0 0.0 0.00 0.99 0.99 94 1019.8
20240527020059 11 79 0.0 0.0 0.00 0.99 0.99 95 1019.9
20240527014555 11 79 0.0 0.0 0.00 0.99 0.99 94 1019.9
20240527013055 11 79 0.0 0.0 0.00 0.99 0.99 94 1020.0
20240527011553 11 79 0.0 0.0 0.00 0.99 0.99 94 1020.1
20240527010059 11 79 0.0 0.0 0.00 0.99 0.99 94 1020.1
20240527004552 11 79 0.0 0.0 0.00 0.99 0.99 94 1020.0
20240527003103 11 79 0.0 0.0 0.00 0.99 0.99 94 1020.1
20240527001521 11 82 0.0 0.0 0.00 0.99 0.99 94 1020.3
20240527000019 11 90 0.0 0.0 0.00 0.99 0.99 94 1020.4
20240526234513 12 128 0.0 0.0 0.00 0.99 0.99 94 1020.5
20240526233012 12 125 0.0 0.0 0.00 0.99 0.99 93 1020.6
20240526231512 12 119 0.0 0.0 0.00 0.99 0.99 93 1020.5
20240526230014 12 95 0.0 0.0 0.00 0.99 0.99 93 1020.6
20240526224508 12 103 0.0 0.0 0.00 0.99 0.99 93 1020.6
20240526223008 12 104 0.0 0.0 0.00 0.99 0.99 93 1020.6
20240526221510 12 86 0.0 0.0 0.00 0.99 0.99 93 1020.6
20240526220006 12 103 0.0 0.0 0.00 0.99 0.99 93 1020.6
20240526214503 12 84 0.0 0.0 0.00 0.99 0.99 93 1020.6
20240526213002 12 88 0.0 0.0 0.00 0.99 0.99 93 1020.7
20240526211504 12 74 0.0 0.0 0.00 0.99 0.99 93 1020.7
20240526210059 13 86 0.0 0.0 0.00 0.99 0.99 93 1020.8
20240526204602 13 91 0.0 0.0 0.00 0.99 0.99 92 1020.8
20240526203054 13 86 0.0 0.0 0.00 0.99 0.99 92 1020.8
20240526201554 13 86 0.0 0.0 0.00 0.99 0.99 92 1020.8
20240526200152 13 82 0.0 0.0 0.00 0.99 0.99 92 1020.7